Regional Weather Roundup
Issued by NWS

Home | Current Version | Previous Version | Graphics & Text | Print | Product List | Glossary On
Versions: 1 2 3 4 5 6 7 8 9 10 11 12 13 14 15 16 17 18 19 20 21 22 23 24 25 26 27 28 29 30 31 32 33 34 35 36 37 38 39 40 41 42 43 44 45 46 47 48 49 50
250
ASUS43 KLOT 282003
RWRIL

ILLINOIS REGIONAL WEATHER ROUNDUP
NATIONAL WEATHER SERVICE CHICAGO/ROMEOVILLE IL
300 PM CDT THU APR 28 2016

NOTE: "FAIR" INDICATES FEW OR NO CLOUDS BELOW 12,000 FEET WITH NO
SIGNIFICANT WEATHER AND/OR OBSTRUCTIONS TO VISIBILITY.

* THESE STATIONS ARE NOT UNDER NWS QUALITY CONTROL. THEY ALSO MAY NOT
  REPORT WEATHER SUCH AS PRECIPITATION OR FOG.

ILZ001-002-007-009-015-016-024-282100-
NORTHWEST ILLINOIS

CITY           SKY/WX    TMP DP  RH WIND       PRES   REMARKS
MOLINE         CLOUDY    54  49  83 CALM      29.89R HAZE
STERLING*      CLOUDY    54  48  82 E9        29.90R
$$

ILZ003-004-008-010-011-017-018-282100-
NORTH CENTRAL ILLINOIS

CITY           SKY/WX    TMP DP  RH WIND       PRES   REMARKS
ROCKFORD       CLOUDY    52  42  69 E12       29.93R
FREEPORT*      CLOUDY    49  43  80 E9        29.92S
ROCHELLE*      CLOUDY    51  46  80 NE7       29.91R
DE KALB*       CLOUDY    52  45  79 NE9       29.90S
$$

ILZ005-006-012>014-019>023-282100-
NORTHEAST ILLINOIS

CITY           SKY/WX    TMP DP  RH WIND       PRES   REMARKS
CHICAGO-OHARE  CLOUDY    50  42  74 NE9       29.90R
CHICAGO-MIDWAY CLOUDY    50  42  74 NE9       29.90R
AURORA         CLOUDY    54  46  74 NE9       29.90S HAZE
LANSING*       CLOUDY    49  44  81 N7        29.90R
WAUKEGAN       CLOUDY    42  39  89 NE13      29.93R
DUPAGE AIRPORT CLOUDY    51  43  74 NE10      29.90R
WHEELING       CLOUDY    45  39  79 NE12      29.93R
NORTHERLY ISL    N/A     45  41  86 NE12        N/A
NORTHERLY ISL    N/A     45  41  86 NE12        N/A
$$

LMZ740>746-282100-
SOUTHERN LAKE MICHIGAN

STATION/POSITION SKY/WX   TEMP    WIND        PRES    VSBY  WAVE
                          AIR SEA DIR/SP/G                  HT/PER
                          (F)     (DEG/KT/KT) (MB)    (MI)  (FT/S)
SOUTHERN BUOY              40 40   70/ 16/ 17 1014.0          3/ 5
HARRISON CRIB              44      60/ 15/ 16   N/A
BURNHAM HARBOR             45      50/ 11/ 13   N/A
CALUMET HARBOR             46      30/ 13/ 15 1011.8R
BURNS HARBOR               46      30/ 12/ 14 1012.5R
MICHIGAN CITY              47     360/ 11/ 12   N/A
ST. JOSEPH                 50 48   80/  8/ 10   N/A           2/ 4
$$

ILZ025>027-034>036-040-047-049-050-058-095>099-282100-
WEST-CENTRAL ILLINOIS

CITY           SKY/WX    TMP DP  RH WIND       PRES   REMARKS
QUINCY         CLOUDY    59  48  67 W13       29.91R
MACOMB*        CLOUDY    57  49  73 W15       29.92S
PITTSFIELD*    CLOUDY    62  50  64 W14       29.92R
$$

ILZ028>032-037-038-041>044-048-051>054-059>061-282100-
CENTRAL ILLINOIS

CITY           SKY/WX    TMP DP  RH WIND       PRES   REMARKS
BLOOMINGTON    PTSUNNY   63  56  78 N7        29.87R
DECATUR        PTSUNNY   68  52  56 W14G25    29.86R
PEORIA         CLOUDY    62  51  67 W9        29.87R
SPRINGFIELD    CLOUDY    66  52  60 W22G29    29.89R
TAYLORVILLE    NOT AVBL
$$

ILZ033-039-045-046-055>057-062-063-282100-
EAST-CENTRAL ILLINOIS

CITY           SKY/WX    TMP DP  RH WIND       PRES   REMARKS
CHAMPAIGN      PTSUNNY   69  51  52 W13       29.85R
MATTOON        PTSUNNY   70  51  51 SW12      29.85R
$$

ILZ079-100>102-282100-
SOUTHWEST ILLINOIS

CITY           SKY/WX    TMP DP  RH WIND       PRES   REMARKS
CAHOKIA*       SUNNY     71  49  45 W10G16    29.89S
SPARTA*        SUNNY     73  51  46 W12       29.91S
$$

ILZ064>066-069>071-074>076-080>082-084>086-088>090-092>094-282100-
SOUTH-CENTRAL ILLINOIS

CITY           SKY/WX    TMP DP  RH WIND       PRES   REMARKS
CARBONDALE     MOSUNNY   74  49  41 SW12      29.89R
MARION         MOSUNNY   75  48  38 W9        29.91R
MT. VERNON     SUNNY     73  52  46 W10G20    29.89S
SALEM*         MOSUNNY   72  53  51 W10       29.89R
$$

ILZ067-068-072-073-078-083-087-091-282100-
SOUTHEAST ILLINOIS

CITY           SKY/WX    TMP DP  RH WIND       PRES   REMARKS
LAWRENCEVILLE  PTSUNNY   73  52  47 W14       29.86R
FLORA*         MOSUNNY   74  52  44 W16       29.88R
HARRISBURG*    SUNNY     76  51  42 W10G22    29.89S
ROBINSON*      PTSUNNY   72  54  53 SW15G21   29.87R
$$

ABBREVIATIONS USED IN REMARKS
   TC - TEMPERATURE IN CELSIUS
  WCI - WIND CHILL INDEX
   HX - HEAT INDEX
  VSB - VISIBILITY
$$





USA.gov is the U.S. government's official web portal to all federal, state and local government web resources and services.